Flag for Israel Weather past 2 weeks in Modi'in-Maccabim-Re'ut, Israel

Now
63 °F

Clear.


Feels Like: 63 °F
Forecast: 54 / 71 °F
Wind: 2 mph from North

Location: Ben Gurion International Airport

Current Time: Mar 29, 2015 at 7:06:54 AM

Latest Report: Mar 29, 2015 at 6:20 AM


Visibility: 10 mi

Pressure: 29.77 "Hg

Humidity: 73%

Dew point: 54 °F

Location of Modi'in-Maccabim-Re'utLocation

Historic Weather in Modi'in-Maccabim-Re'ut — Graph

°F

Modi'in-Maccabim-Re'ut temperature yesterday

Maximum temperature yesterday: 84 °F (at 12:20 AM)
Minimum temperature yesterday: 66 °F (at 11:20 PM)
Average temperature yesterday: 78 °F

Past Weeks' High & Low Weather Summary

 TemperatureHumidityPressure
High90 °F (Mar 27, 2:20 PM)88% (Mar 14, 4:50 AM)30.18 "Hg (Mar 14, 4:50 AM)
Low48 °F (Mar 23, 5:50 AM)17% (Mar 27, 2:20 PM)29.62 "Hg (Mar 28, 4:50 AM)
Average63 °F59%30.02 "Hg
* Reported Mar 14 4:20 AM — Mar 29 5:50 AM, Modi'in-Maccabim-Re'ut, Weather by CustomWeather, © 2015

Note: Actual official high and low records may vary slightly from our data, if they occured in-between our weather recording intervals... More about our weather records

Advertising

Modi'in-Maccabim-Re'ut weather history for previous 24 hours

 ConditionsComfort  
Time TempWeatherWind HumidityBarometerVisibility
5:50 AM
Sun, Mar 29
63 °FPassing clouds.3 mph77%29.77 "HgN/A
5:20 AM63 °FPassing clouds.3 mph77%29.77 "HgN/A
4:50 AM63 °FPassing clouds.3 mph77%29.77 "HgN/A
4:20 AM63 °FPassing clouds.3 mph77%29.80 "HgN/A
3:50 AM64 °FClear.1 mph73%29.80 "Hg10 mi
3:20 AM64 °FClear.5 mph73%29.80 "Hg10 mi
2:50 AM66 °FClear.3 mph68%29.80 "Hg10 mi
2:20 AM66 °FClear.5 mph68%29.80 "Hg10 mi
1:50 AM66 °FClear.5 mph68%29.80 "Hg10 mi
1:20 AM66 °FClear.1 mph68%29.83 "Hg10 mi
12:50 AM66 °FClear.5 mph68%29.83 "Hg10 mi
12:20 AM66 °FClear.3 mph73%29.83 "Hg10 mi
11:50 PM
Sat, Mar 28
66 °FClear.5 mph73%29.86 "Hg10 mi
11:20 PM66 °FClear.2 mph73%29.83 "Hg10 mi
10:50 PM68 °FPassing clouds.5 mph64%29.86 "HgN/A
10:20 PM68 °FLight rain. Passing clouds.3 mph69%29.83 "HgN/A
9:50 PM72 °FLight rain. Passing clouds.7 mph57%29.83 "HgN/A
9:20 PM72 °FPassing clouds.13 mph57%29.83 "HgN/A
8:50 PM72 °FLight rain. Passing clouds.7 mph57%29.83 "HgN/A
8:20 PM73 °FClear.6 mph44%29.86 "Hg10 mi
7:50 PM73 °FPassing clouds.6 mph50%29.83 "HgN/A
7:20 PM75 °FLight rain. Passing clouds.6 mph39%29.86 "HgN/A
6:50 PM75 °FLight rain. Passing clouds.8 mph36%29.83 "HgN/A
6:20 PM77 °FLight rain. Scattered clouds.8 mph36%29.86 "HgN/A
5:50 PM77 °FSunny.5 mph30%29.83 "Hg10 mi
5:20 PM79 °FSunny.6 mph30%29.86 "Hg10 mi
4:50 PM79 °FSunny.6 mph28%29.83 "Hg10 mi
4:20 PM81 °FSunny.9 mph26%29.83 "Hg10 mi
3:50 PM81 °FSunny.6 mph28%29.80 "Hg10 mi
3:20 PM82 °FSunny.6 mph28%29.83 "Hg10 mi
2:50 PM81 °FSunny.7 mph30%29.83 "Hg10 mi
2:20 PM81 °FSunny.7 mph34%29.83 "Hg10 mi
1:50 PM81 °FSunny.7 mph34%29.83 "Hg10 mi
1:20 PM79 °FSunny.9 mph39%29.86 "Hg10 mi
12:50 PM79 °FSunny.7 mph39%29.86 "Hg10 mi
12:20 PM77 °FSunny.8 mph42%29.86 "Hg10 mi
11:50 AM77 °FClear.10 mph44%29.86 "Hg6 mi
11:20 AM77 °FClear.7 mph44%29.86 "Hg6 mi
10:50 AM77 °FClear.9 mph44%29.83 "Hg6 mi
10:20 AM77 °FClear.14 mph42%29.80 "Hg6 mi
9:50 AM75 °FClear.17 mph50%29.80 "Hg6 mi
9:20 AM81 °FSunny.9 mph30%29.77 "Hg10 mi
8:50 AM79 °FSunny.9 mph37%29.74 "Hg10 mi
8:20 AM77 °FSunny.3 mph39%29.74 "Hg10 mi
7:50 AM75 °FSunny.15 mph36%29.71 "Hg10 mi
7:20 AM77 °FClear.6 mph30%29.68 "Hg10 mi
Weather by CustomWeather, © 2015

See weather overviewHow to use our weather pages